K3BAY-1 Weather Reports


Display with metric or nautical units.
time (UTC)temp
F
wind
direction
speed
MPH
gust
MPH
rain 1hr
in
rain 24hr
in
rain mn
in
humidity
%
barometer
mb
20260507071042 58 123 4.0 11.0 0.00 0.03 0.03 86 1006.4
20260507070539 58 136 3.0 6.0 0.00 0.03 0.03 85 1006.4
20260507070036 58 171 4.0 6.0 0.00 0.03 0.03 86 1006.4
20260507065532 58 123 3.0 6.0 0.00 0.03 0.03 85 1006.7
20260507065029 58 130 4.0 6.0 0.00 0.03 0.03 87 1006.7
20260507064527 58 134 3.0 6.0 0.00 0.03 0.03 87 1006.7
20260507064026 58 117 4.0 7.0 0.00 0.03 0.03 87 1006.7
20260507063522 58 120 4.0 6.0 0.00 0.03 0.03 87 1006.7
20260507063020 57 109 5.0 6.0 0.00 0.03 0.03 89 1007.0
20260507062516 57 130 5.0 7.0 0.00 0.03 0.03 89 1007.0
20260507062014 57 112 4.0 6.0 0.07 0.03 0.03 89 1007.0
20260507061511 58 107 4.0 6.0 0.07 0.03 0.03 88 1007.0
20260507061009 58 114 3.0 7.0 0.00 0.02 0.02 87 1007.0
20260507060507 58 130 4.0 6.0 0.00 0.02 0.02 88 1007.0
20260507060003 58 133 4.0 6.0 0.00 0.02 0.02 88 1007.0
20260507055458 57 139 5.0 7.0 0.00 0.02 0.02 87 1007.4
20260507054955 57 128 5.0 7.0 0.00 0.02 0.02 89 1007.4
20260507054451 57 146 5.0 7.0 0.05 0.02 0.02 93 1007.4
20260507053948 58 134 4.0 7.0 0.12 0.02 0.02 93 1007.4
20260507053446 59 153 4.0 7.0 0.07 0.01 0.01 94 1007.4
20260507052944 59 119 4.0 6.0 0.00 0.00 0.00 93 1007.4
20260507052442 59 77 3.0 7.0 0.00 0.00 0.00 91 1007.4
20260507051938 61 133 4.0 7.0 0.00 0.00 0.00 88 1007.7
20260507051436 61 133 6.0 8.0 0.00 0.00 0.00 84 1007.7
20260507050933 62 132 3.0 3.0 0.00 0.00 0.00 83 1007.7
20260507050429 62 88 2.0 3.0 0.00 0.00 0.00 82 1007.4
20260507045926 62 100 1.0 3.0 0.00 0.00 0.00 81 1007.7
20260507045422 62 74 1.0 2.0 0.00 0.00 0.00 81 1007.4
20260507044920 62 87 2.0 6.0 0.00 0.00 0.00 83 1007.7
20260507044416 62 113 5.0 7.0 0.00 0.00 0.00 83 1007.7
20260507043912 62 126 6.0 10.0 0.00 0.00 0.00 81 1007.7
20260507043409 63 109 4.0 6.0 0.00 0.00 0.00 83 1007.7
20260507042905 63 107 4.0 8.0 0.00 0.00 0.00 85 1007.4
20260507042402 63 137 4.0 7.0 0.00 0.00 0.00 85 1007.7
20260507041858 64 128 5.0 7.0 0.00 0.00 0.00 86 1007.4
20260507041355 64 138 2.0 4.0 0.00 0.00 0.00 85 1007.7
20260507040852 64 139 3.0 4.0 0.00 0.00 0.00 85 1007.7
20260507040348 64 136 2.0 3.0 0.00 0.00 0.00 84 1007.7
20260507035844 64 132 4.0 4.0 0.00 0.15 0.15 84 1007.7
20260507035340 64 135 3.0 3.0 0.00 0.15 0.15 83 1008.1
20260507034837 64 74 3.0 4.0 0.00 0.15 0.15 83 1007.7
20260507034334 64 83 2.0 3.0 0.00 0.15 0.15 83 1008.1
20260507033832 64 112 3.0 4.0 0.00 0.15 0.15 83 1008.1
20260507033330 64 85 0.0 2.0 0.00 0.15 0.15 82 1007.7
20260507032827 65 85 1.0 2.0 0.00 0.15 0.15 82 1007.7
20260507032323 65 95 1.0 2.0 0.00 0.15 0.15 83 1007.7
20260507031819 65 115 2.0 3.0 0.00 0.15 0.15 84 1007.7
20260507031316 65 96 0.0 2.0 0.00 0.15 0.15 83 1007.7
20260507030812 65 98 2.0 3.0 0.00 0.15 0.15 83 1007.7
20260507030311 66 77 1.0 3.0 0.00 0.15 0.15 82 1008.1
20260507025807 66 119 2.0 4.0 0.00 0.15 0.15 82 1008.1
20260507025306 66 98 2.0 4.0 0.00 0.15 0.15 81 1008.1
20260507024802 65 83 2.0 3.0 0.00 0.15 0.15 82 1008.1
20260507024259 66 141 3.0 4.0 0.00 0.15 0.15 84 1007.7
20260507023755 66 129 2.0 8.0 0.00 0.15 0.15 83 1008.1
20260507023252 67 81 0.0 1.0 0.00 0.15 0.15 86 1008.1
20260507022749 67 85 0.0 0.0 0.00 0.15 0.15 87 1008.1
20260507022245 67 86 0.0 0.0 0.00 0.15 0.15 87 1007.7
20260507021742 67 83 0.0 0.0 0.00 0.15 0.15 87 1007.7
20260507021237 67 87 0.0 0.0 0.00 0.15 0.15 87 1008.1
20260507020736 67 81 0.0 0.0 0.00 0.15 0.15 86 1008.4
20260507020232 67 82 0.0 0.0 0.00 0.15 0.15 86 1008.1
20260507015729 67 81 0.0 0.0 0.00 0.15 0.15 85 1008.4
20260507015227 67 84 0.0 1.0 0.00 0.15 0.15 85 1008.1
20260507014723 67 76 0.0 0.0 0.00 0.15 0.15 86 1008.4
20260507014220 67 79 0.0 0.0 0.00 0.15 0.15 86 1008.1
20260507013716 67 81 0.0 0.0 0.00 0.15 0.15 86 1008.1
20260507013214 67 84 0.0 0.0 0.00 0.15 0.15 85 1008.4
20260507012711 67 81 0.0 0.0 0.00 0.15 0.15 86 1008.1
20260507012206 67 81 0.0 0.0 0.00 0.15 0.15 86 1008.1
20260507011704 67 77 0.0 0.0 0.00 0.15 0.15 86 1008.1
20260507011201 67 75 0.0 0.0 0.00 0.15 0.15 85 1008.1
20260507010700 67 82 0.0 0.0 0.00 0.15 0.15 86 1008.1
20260507010156 67 82 0.0 0.0 0.00 0.15 0.15 86 1008.1
20260507005654 68 70 0.0 0.0 0.00 0.15 0.15 85 1008.1
20260507005149 68 82 0.0 0.0 0.00 0.15 0.15 85 1008.1
20260507004646 68 82 0.0 0.0 0.00 0.15 0.15 85 1008.1
20260507004144 68 82 0.0 0.0 0.00 0.15 0.15 84 1008.1
20260507003640 68 74 0.0 0.0 0.00 0.15 0.15 84 1008.1
20260507003140 68 63 0.0 0.0 0.00 0.15 0.15 84 1008.1
20260507002637 68 81 0.0 0.0 0.00 0.15 0.15 84 1007.7
20260507002133 68 78 0.0 0.0 0.00 0.15 0.15 84 1008.1
20260507001630 68 73 1.0 1.0 0.00 0.15 0.15 84 1008.1
20260507001127 68 82 0.0 1.0 0.00 0.15 0.15 84 1008.1
20260507000624 68 84 0.0 1.0 0.00 0.15 0.15 84 1008.1
20260507000119 68 70 0.0 0.0 0.00 0.15 0.15 84 1008.1
20260506235617 68 38 0.0 0.0 0.00 0.15 0.15 84 1008.4
20260506235116 69 84 0.0 0.0 0.00 0.15 0.15 83 1008.1
20260506234614 69 78 0.0 0.0 0.00 0.15 0.15 83 1008.1
20260506234111 69 77 0.0 0.0 0.00 0.15 0.15 83 1008.1
20260506233608 69 82 0.0 0.0 0.00 0.15 0.15 83 1008.1
20260506233105 69 79 0.0 0.0 0.00 0.15 0.15 82 1008.1
20260506232601 69 85 0.0 0.0 0.00 0.15 0.15 82 1008.4
20260506232101 69 84 0.0 0.0 0.00 0.15 0.15 82 1008.4
20260506231559 70 85 0.0 0.0 0.00 0.15 0.15 82 1008.1
20260506231057 70 87 0.0 0.0 0.00 0.15 0.15 81 1008.1
20260506230553 70 85 2.0 3.0 0.00 0.15 0.15 81 1008.1
20260506230051 70 76 0.0 1.0 0.00 0.15 0.15 80 1008.1
20260506225548 70 43 0.0 0.0 0.00 0.15 0.15 80 1008.1
20260506225044 70 91 0.0 0.0 0.00 0.15 0.15 80 1008.1
20260506224541 70 77 0.0 0.0 0.00 0.15 0.15 80 1008.1
20260506224037 71 81 0.0 0.0 0.00 0.15 0.15 79 1008.1
20260506223533 71 85 0.0 0.0 0.00 0.15 0.15 79 1008.1
20260506223030 70 324 1.0 2.0 0.00 0.15 0.15 79 1007.7
20260506222527 71 89 0.0 0.0 0.00 0.15 0.15 79 1008.1
20260506222023 71 33 1.0 2.0 0.00 0.15 0.15 78 1008.1
20260506221521 71 151 0.0 2.0 0.00 0.15 0.15 79 1008.1
20260506221019 71 88 0.0 0.0 0.00 0.15 0.15 79 1008.1
20260506220514 71 81 0.0 1.0 0.00 0.15 0.15 79 1008.1
20260506220010 71 35 0.0 0.0 0.00 0.15 0.15 78 1008.1
20260506215507 71 81 0.0 0.0 0.00 0.15 0.15 78 1008.1
20260506215003 72 66 1.0 2.0 0.00 0.15 0.15 78 1008.1
20260506214500 72 6 0.0 1.0 0.00 0.15 0.15 78 1008.1
20260506213957 72 68 1.0 2.0 0.00 0.15 0.15 77 1007.7
20260506213455 71 35 0.0 1.0 0.00 0.15 0.15 78 1008.1
20260506212952 71 84 1.0 2.0 0.00 0.15 0.15 78 1008.1
20260506212448 72 71 0.0 2.0 0.00 0.15 0.15 77 1007.7
20260506211943 72 58 1.0 2.0 0.00 0.15 0.15 77 1008.1
20260506211439 71 118 0.0 2.0 0.00 0.15 0.15 77 1008.1
20260506210937 71 46 0.0 3.0 0.00 0.15 0.15 78 1007.7
20260506210433 71 79 0.0 1.0 0.00 0.15 0.15 77 1008.1
20260506205931 71 86 0.0 2.0 0.00 0.15 0.15 77 1008.1
20260506205427 71 71 0.0 1.0 0.00 0.15 0.15 77 1007.7
20260506204923 71 79 1.0 2.0 0.00 0.15 0.15 77 1008.1
20260506204421 71 42 1.0 2.0 0.00 0.15 0.15 77 1008.1
20260506203918 72 82 0.0 0.0 0.00 0.15 0.15 77 1007.7
20260506203415 71 72 0.0 0.0 0.00 0.15 0.15 77 1007.7
20260506202912 71 358 2.0 2.0 0.00 0.15 0.15 76 1008.1
20260506202409 72 76 0.0 2.0 0.00 0.15 0.15 77 1008.1
20260506201906 71 49 1.0 2.0 0.00 0.15 0.15 76 1007.7
20260506201403 74 295 2.0 6.0 0.00 0.15 0.15 74 1008.1
20260506200859 73 65 1.0 3.0 0.00 0.15 0.15 73 1008.1
20260506200356 73 357 2.0 4.0 0.00 0.15 0.15 74 1008.1
20260506195852 73 44 0.0 1.0 0.00 0.15 0.15 73 1008.1
20260506195350 73 323 1.0 2.0 0.00 0.15 0.15 74 1008.1
20260506194846 72 357 0.0 2.0 0.00 0.15 0.15 75 1008.1
20260506194343 73 331 2.0 4.0 0.00 0.15 0.15 74 1008.1
20260506193841 73 320 3.0 4.0 0.00 0.15 0.15 74 1008.1
20260506193337 75 0 1.0 2.0 0.00 0.15 0.15 72 1008.1
20260506192833 75 105 0.0 2.0 0.00 0.15 0.15 72 1008.1
20260506192330 73 83 1.0 1.0 0.00 0.15 0.15 74 1008.1
20260506191827 73 80 2.0 3.0 0.00 0.15 0.15 74 1008.1
20260506191324 72 87 0.0 1.0 0.00 0.15 0.15 76 1008.1
20260506190821 73 31 1.0 2.0 0.00 0.15 0.15 75 1008.1
20260506190317 71 86 0.0 2.0 0.00 0.15 0.15 77 1008.1
20260506185814 71 6 1.0 2.0 0.00 0.15 0.15 77 1008.1
20260506185311 70 5 2.0 2.0 0.00 0.15 0.15 78 1008.1
20260506184808 70 167 0.0 1.0 0.00 0.15 0.15 78 1008.1
20260506184305 69 348 3.0 8.0 0.00 0.15 0.15 79 1008.1
20260506183802 70 53 2.0 3.0 0.00 0.15 0.15 79 1008.1
20260506183257 69 51 2.0 4.0 0.00 0.15 0.15 79 1008.1
20260506182755 69 105 1.0 2.0 0.00 0.15 0.15 79 1008.1
20260506182252 69 3 1.0 4.0 0.00 0.15 0.15 79 1008.1
20260506181750 69 24 1.0 2.0 0.00 0.15 0.15 80 1008.1
20260506181247 69 126 1.0 2.0 0.00 0.15 0.15 79 1008.1
20260506180744 68 61 1.0 2.0 0.00 0.15 0.15 81 1008.1
20260506180240 69 345 1.0 2.0 0.00 0.15 0.15 80 1008.1
20260506175736 68 40 2.0 9.0 0.00 0.15 0.15 81 1008.1
20260506175233 68 312 1.0 4.0 0.00 0.15 0.15 81 1008.1
20260506174731 67 52 1.0 3.0 0.00 0.15 0.15 83 1008.1
20260506174227 68 312 2.0 4.0 0.00 0.15 0.15 83 1008.1
20260506173726 68 69 1.0 3.0 0.00 0.15 0.15 83 1008.1
20260506173222 68 337 1.0 3.0 0.00 0.15 0.15 84 1008.1
20260506172719 67 11 1.0 6.0 0.00 0.15 0.15 85 1008.1
20260506172215 67 90 1.0 3.0 0.05 0.15 0.15 86 1008.1
20260506171713 67 312 1.0 8.0 0.05 0.15 0.15 85 1008.1
20260506171210 67 4 2.0 4.0 0.00 0.14 0.14 86 1008.1
20260506170708 66 93 1.0 7.0 0.00 0.14 0.14 87 1008.1
20260506170204 66 358 1.0 2.0 0.00 0.14 0.14 88 1008.1
20260506165703 65 14 5.0 11.0 0.00 0.14 0.14 89 1008.1
20260506165159 65 77 1.0 4.0 0.00 0.14 0.14 90 1008.1
20260506164656 65 326 1.0 2.0 0.00 0.14 0.14 91 1008.1
20260506164154 64 82 1.0 3.0 0.00 0.14 0.14 92 1008.1
20260506163650 64 40 1.0 4.0 0.00 0.14 0.14 93 1008.1
20260506163145 64 89 1.0 2.0 0.00 0.14 0.14 94 1008.1
20260506162641 63 28 0.0 2.0 0.00 0.14 0.14 95 1008.1
20260506162139 63 38 1.0 4.0 0.00 0.14 0.14 95 1008.1
20260506161636 63 68 1.0 3.0 0.00 0.14 0.14 96 1008.1
20260506161133 62 297 2.0 4.0 0.00 0.14 0.14 96 1008.1
20260506160631 62 293 1.0 3.0 0.00 0.14 0.14 96 1008.1
20260506160127 62 80 0.0 2.0 0.00 0.14 0.14 97 1008.1
20260506155626 62 300 3.0 6.0 0.00 0.14 0.14 96 1008.4
20260506155122 61 314 0.0 2.0 0.00 0.14 0.14 97 1008.1
20260506153225 61 71 0.0 6.0 0.00 0.14 0.14 97 1008.4
20260506152721 61 320 2.0 2.0 0.00 0.14 0.14 96 1008.1
20260506152219 61 45 1.0 2.0 0.00 0.14 0.14 96 1008.1
20260506151718 61 310 0.0 2.0 0.00 0.14 0.14 96 1008.4
20260506151214 61 338 1.0 2.0 0.14 0.14 0.14 96 1008.4
20260506150710 61 78 0.0 4.0 0.12 0.13 0.13 95 1008.1
20260506150208 61 54 2.0 3.0 0.17 0.12 0.12 95 1008.4
20260506145704 61 325 2.0 3.0 0.31 0.11 0.11 95 1008.4
20260506145201 61 314 2.0 3.0 0.24 0.09 0.09 94 1008.4
20260506144659 61 35 0.0 2.0 0.12 0.06 0.06 94 1008.4
20260506144155 61 82 1.0 3.0 0.07 0.05 0.05 93 1008.4
20260506143653 62 42 1.0 2.0 0.00 0.04 0.04 93 1008.4
20260506143151 62 336 1.0 2.0 0.05 0.04 0.04 92 1008.4
20260506142649 62 35 1.0 2.0 0.05 0.04 0.04 92 1008.4
20260506142146 62 52 1.0 2.0 0.12 0.03 0.03 91 1008.4
20260506141644 62 13 1.0 2.0 0.12 0.03 0.03 90 1008.4
20260506141142 63 357 1.0 2.0 0.00 0.01 0.01 88 1008.4
20260506140639 63 36 1.0 2.0 0.07 0.01 0.01 87 1008.1
20260506140137 64 40 1.0 2.0 0.07 0.01 0.01 86 1008.1
20260506135633 64 80 0.0 3.0 0.00 0.00 0.00 85 1008.4
20260506135130 65 111 0.0 2.0 0.00 0.00 0.00 83 1008.4
20260506134626 65 30 0.0 1.0 0.00 0.00 0.00 82 1008.4
20260506134122 65 76 0.0 3.0 0.00 0.00 0.00 81 1008.4
20260506133620 65 69 1.0 2.0 0.00 0.00 0.00 81 1008.4
20260506133116 65 354 1.0 4.0 0.00 0.00 0.00 80 1008.1
20260506132614 66 10 2.0 2.0 0.00 0.00 0.00 80 1008.1
20260506132110 66 65 0.0 2.0 0.00 0.00 0.00 80 1008.1
20260506131608 66 345 1.0 2.0 0.00 0.00 0.00 79 1008.1
20260506131104 66 84 0.0 4.0 0.00 0.00 0.00 78 1007.7
20260506130601 66 322 2.0 4.0 0.00 0.00 0.00 77 1008.1
20260506130059 66 342 1.0 2.0 0.00 0.00 0.00 77 1008.1
20260506125557 66 69 0.0 1.0 0.00 0.00 0.00 78 1008.1
20260506125054 66 6 0.0 2.0 0.00 0.00 0.00 78 1008.1
20260506124552 66 43 1.0 2.0 0.00 0.00 0.00 78 1008.1
20260506124049 66 71 2.0 2.0 0.00 0.00 0.00 78 1008.1
20260506123547 66 70 0.0 1.0 0.00 0.00 0.00 79 1008.1
20260506123045 66 51 0.0 2.0 0.00 0.00 0.00 78 1008.1
20260506122541 66 82 1.0 2.0 0.00 0.00 0.00 78 1008.1
20260506122040 66 81 1.0 9.0 0.00 0.00 0.00 78 1008.1
20260506121537 66 112 1.0 2.0 0.00 0.00 0.00 78 1008.1
20260506121033 66 359 0.0 2.0 0.00 0.00 0.00 77 1007.7
20260506120531 66 55 1.0 2.0 0.00 0.00 0.00 76 1008.1
20260506120028 66 321 1.0 4.0 0.00 0.00 0.00 77 1008.1
20260506115526 66 329 1.0 2.0 0.00 0.00 0.00 77 1008.1
20260506115025 66 12 1.0 2.0 0.00 0.00 0.00 76 1007.7
20260506114521 67 67 0.0 3.0 0.00 0.00 0.00 77 1008.1
20260506114020 67 4 2.0 2.0 0.00 0.00 0.00 76 1007.7
20260506113517 66 80 1.0 2.0 0.00 0.00 0.00 77 1007.7
20260506113015 66 62 1.0 9.0 0.00 0.00 0.00 77 1008.1
20260506112511 66 9 1.0 2.0 0.00 0.00 0.00 77 1007.7
20260506112008 66 66 1.0 3.0 0.00 0.00 0.00 77 1008.1
20260506111507 66 71 0.0 3.0 0.00 0.00 0.00 77 1007.7
20260506111003 66 299 0.0 2.0 0.00 0.00 0.00 78 1007.7
20260506110501 65 346 1.0 7.0 0.00 0.00 0.00 78 1007.7
20260506105957 66 32 1.0 2.0 0.00 0.00 0.00 78 1007.7
20260506105454 66 359 1.0 4.0 0.00 0.00 0.00 78 1008.1
20260506104951 66 310 2.0 6.0 0.00 0.00 0.00 78 1008.1
20260506104449 66 109 1.0 10.0 0.00 0.00 0.00 78 1008.1
20260506103947 66 85 1.0 2.0 0.00 0.00 0.00 78 1008.1
20260506103444 65 75 0.0 1.0 0.00 0.00 0.00 78 1008.1
20260506102940 65 314 1.0 3.0 0.00 0.00 0.00 78 1008.1
20260506102439 65 4 1.0 2.0 0.00 0.00 0.00 78 1008.1
20260506101936 65 21 1.0 2.0 0.00 0.00 0.00 78 1008.1
20260506101432 65 53 1.0 2.0 0.00 0.00 0.00 78 1008.1
20260506100930 65 62 1.0 2.0 0.00 0.00 0.00 78 1008.1
20260506100428 66 354 1.0 3.0 0.00 0.00 0.00 77 1008.1
20260506095926 66 27 1.0 3.0 0.00 0.00 0.00 77 1008.1
20260506095424 66 10 0.0 2.0 0.00 0.00 0.00 77 1008.1
20260506094919 66 148 0.0 2.0 0.00 0.00 0.00 77 1008.1
20260506094418 66 94 1.0 2.0 0.00 0.00 0.00 77 1008.7
20260506093916 66 58 1.0 2.0 0.00 0.00 0.00 77 1008.1
20260506093413 66 83 1.0 2.0 0.00 0.00 0.00 77 1008.4
20260506092911 66 129 1.0 6.0 0.00 0.00 0.00 77 1008.4
20260506092409 66 113 1.0 2.0 0.00 0.00 0.00 77 1008.4
20260506091905 66 109 1.0 2.0 0.00 0.00 0.00 76 1008.4
20260506091403 66 3 0.0 4.0 0.00 0.00 0.00 76 1008.4
20260506090900 66 338 1.0 7.0 0.00 0.00 0.00 76 1008.4
20260506090358 66 61 2.0 7.0 0.00 0.00 0.00 75 1008.4
20260506085854 67 322 2.0 2.0 0.00 0.00 0.00 75 1008.4
20260506085351 67 87 1.0 2.0 0.00 0.00 0.00 75 1008.4
20260506084847 67 312 1.0 2.0 0.00 0.00 0.00 74 1008.4
20260506084344 67 90 0.0 8.0 0.00 0.00 0.00 74 1008.4
20260506083840 67 12 2.0 2.0 0.00 0.00 0.00 74 1008.4
20260506083338 67 325 1.0 10.0 0.00 0.00 0.00 74 1008.7
20260506082836 67 354 2.0 3.0 0.00 0.00 0.00 74 1008.7
20260506082332 67 305 2.0 2.0 0.00 0.00 0.00 73 1008.7
20260506081828 67 293 2.0 4.0 0.00 0.00 0.00 74 1008.7
20260506081326 68 80 0.0 3.0 0.00 0.00 0.00 73 1008.7
20260506080824 68 47 0.0 6.0 0.00 0.00 0.00 73 1008.7
20260506080320 68 74 1.0 2.0 0.00 0.00 0.00 73 1009.1
20260506073304 69 326 2.0 3.0 0.00 0.00 0.00 70 1008.7
20260506072801 69 52 1.0 3.0 0.00 0.00 0.00 70 1009.1
20260506072258 69 320 2.0 11.0 0.00 0.00 0.00 69 1009.1
20260506071756 69 101 1.0 10.0 0.00 0.00 0.00 68 1008.7